Regional Weather Roundup
Issued by NWS

Home | Current Version | Previous Version | Text Only | Print | Product List | Glossary Off
Versions: 1 2 3 4 5 6 7 8 9 10 11 12 13 14 15 16 17 18 19 20 21 22 23 24 25 26 27 28 29 30 31 32 33 34 35 36 37 38 39 40 41 42 43 44 45 46 47 48 49 50

000
ASUS43 KIND 031109
RWRIN

WEATHER ROUNDUP FOR INDIANA
NATIONAL WEATHER SERVICE INDIANAPOLIS IN
700 AM EDT THU SEP 03 2015

NOTE: "FAIR" INDICATES FEW OR NO CLOUDS BELOW 12,000 FEET WITH NO
SIGNIFICANT WEATHER AND/OR OBSTRUCTIONS TO VISIBILITY.

* - STATION DOES NOT REPORT WEATHER SUCH AS PRECIPITATION OR FOG.

+ - STATION NOT QUALITY CONTROLLED BY THE NATIONAL WEATHER SERVICE.
    USE DATA WITH CAUTION...ESPECIALLY DEWPOINT AND RELATIVE
    HUMIDITY OBSERVATIONS.

INZ001>003-010>013-019-020-031200-
NORTHWEST INDIANA

CITY           SKY/WX    TMP DP  RH WIND       PRES   REMARKS
GARY /AIRPORT/ PTCLDY    73  66  78 S6        29.97S
KNOX *+        CLEAR     68  68 100 S6        29.98F
LA PORTE +     CLEAR    N/A N/A N/A SW5       29.99F HAZE
MICHIGAN CITY+ CLEAR     70  64  83 S5        29.98S
MONTICELLO +   PTCLDY    71  69  96 CALM      30.00R
RENSSELAER +   PTCLDY    68  68 100 SW3       30.00R FOG
VALPARAISO     CLEAR     70  67  90 CALM      29.99S

$$

LMZ046-743>745-031200-
SOUTHERN LAKE MICHIGAN

STATION/POSITION TIME  TEMP    WIND        PRES    WAVE
                       AIR SEA DIR/SP/G            HT
                 (UTC) (F)     (DEG/KT/KT) (MB)    (FT)
BURNS HARBOR     1000   76     220/  7/ 10 1015.2S
MICHIGAN CITY    1000   75     170/  8/  9   N/A
5NW MICH CITY    1100   74 73  220/  8/  8   N/A     1

$$

INZ004-005-014>016-021>024-031200-
NORTH CENTRAL INDIANA

CITY           SKY/WX    TMP DP  RH WIND       PRES   REMARKS
ELKHART        CLEAR     68  68 100 CALM      29.99
GOSHEN         PTCLDY    71  67  87 CALM      29.99R
LOGANSPORT +   MOCLDY    68  63  83 CALM      30.02R
PERU/GRISSOM   CLEAR     69  66  92 SW5       30.01R
ROCHESTER +    CLEAR     72  70  94 SW3       30.02R
SOUTH BEND     CLEAR     70  68  93 SW3       29.99S
WARSAW +       PTCLDY    70  68  94 W5        30.01R

$$

INZ006>009-017-018-025>027-031200-
NORTHEAST INDIANA

CITY           SKY/WX    TMP DP  RH WIND       PRES   REMARKS
ANGOLA *+      CLEAR     70  63  78 W3        30.00S
AUBURN +       CLEAR     70  66  88 CALM      30.01S FOG
FORT WAYNE     PTCLDY    69  66  90 SW5       30.02R
HUNTINGTON +   CLEAR     68  64  87 CALM      30.01R

$$

INZ028-029-035-036-043>045-051>053-031200-
WEST CENTRAL INDIANA

CITY           SKY/WX    TMP DP  RH WIND       PRES   REMARKS
CRAWFORDSVL +  PTCLDY    63  63 100 CALM      30.03R FOG
GREENCASTLE +  PTCLDY    63  61  94 CALM      30.04R FOG
LAFAYETTE      CLEAR     68  67  96 CALM      30.01R FOG
TERRE HAUTE    FOG       63  63 100 CALM      30.03R VSB 3/4

$$

INZ030>032-037>040-046>048-054>057-064-065-031200-
CENTRAL INDIANA

CITY           SKY/WX    TMP DP  RH WIND       PRES   REMARKS
FISHERS *+     CLEAR     66  66 100 CALM      30.03
FRANKFORT +    CLEAR    N/A N/A N/A CALM      30.04R HAZE
GREENWOOD *+   CLEAR     64  63  94 CALM      30.04R
INDIANAPOLIS   PTCLDY    69  66  90 CALM      30.02R
-EAGLE CREEK   CLEAR     67  66  97 CALM      30.02R FOG
KOKOMO *+      PTCLDY    68  63  83 SW5       30.02R
MARION +       PTCLDY    66  60  83 CALM      30.03R
MT COMFORT *+  CLEAR     64 N/A N/A CALM      30.04R
SHELBYVILLE    CLEAR     65  62  90 CALM      30.03R FOG
ZIONSVILLE +   CLEAR     64  62  91 CALM      30.04R FOG

$$

INZ033-034-041-042-049-050-058-059-031200-
EAST CENTRAL INDIANA

CITY           SKY/WX    TMP DP  RH WIND       PRES   REMARKS
MUNCIE         CLEAR     69  67  93 SW3       30.03R

$$

INZ060-061-067>069-081>083-085>088-031200-
SOUTHWEST INDIANA

CITY           SKY/WX    TMP DP  RH WIND       PRES   REMARKS
EVANSVILLE     CLEAR     68  66  93 CALM      30.03R HAZE
HUNTINGBURG *+ PTCLDY    66  63  88 CALM      30.03R VSB 3/4
WASHINGTON +   CLEAR     64  61  87 CALM      30.02S FOG

$$

INZ062-063-066-070>080-084-089>092-031200-
SOUTH CENTRAL AND SOUTHEAST INDIANA

CITY           SKY/WX    TMP DP  RH WIND       PRES   REMARKS
BLOOMINGTON    CLEAR     64  63  96 CALM      30.04R FOG
NORTH VERNON + CLEAR     66  66 100 CALM      30.04R FOG
SEYMOUR +        N/A     64  64 100 CALM      30.03R FOG

$$



USA.gov is the U.S. government's official web portal to all federal, state and local government web resources and services.